Wetbulb
45.11 40.11 37.23 40.64 42.50 42.24 41.14 39.16 37.62 40.60 43.46 41.59 41.48 41.77 43.78 46.27 46.64 46.72 47.34 48.97 51.16 52.28 54.78 55.53 56.48 56.20 59.08 63.62 66.92 68.38 67.00 66.54 66.81 64.19 62.93 62.71 61.81 63.14 63.35 63.99 64.11 64.69 64.62 64.87
42.08 37.97 43.13 44.40 43.81 41.89 40.72 38.06 37.43 40.43 42.53 42.17 41.73 41.65 45.31 47.28 47.97 48.14 47.34 48.37 50.03 52.31 53.68 55.47 55.96 58.23 62.04 64.86 66.42 67.74 66.80 66.83 66.48 64.81 63.77 63.66 63.04 63.34 62.95 63.41 63.61 64.34 64.38 64.45
40.25 42.55 45.77 44.15 42.41 40.77 40.19 37.81 37.56 37.79 41.21 43.12 41.88 39.92 42.76 46.32 47.04 48.58 49.57 49.96 49.80 51.03 52.90 54.52 55.67 56.92 62.42 64.63 66.16 67.26 66.35 66.73 66.13 65.20 64.32 63.42 63.41 62.89 61.72 62.11 62.85 63.28 63.81 63.54
41.81 45.10 43.44 42.25 40.85 41.34 36.72 42.19 41.21 40.47 38.68 33.74 42.08 31.78 40.42 43.36 45.64 48.12 49.18 49.68 50.20 50.80 51.78 54.71 55.59 56.10 62.02 63.70 66.97 67.41 66.78 66.14 65.85 65.30 63.41 61.74 60.41 59.84 61.00 61.04 62.77 63.06 63.69 63.04
39.12 41.17 40.81 39.60 40.36 42.13 38.53 43.19 41.91 40.82 38.64 37.74 37.38 34.07 38.47 43.57 43.31 46.06 48.79 50.96 51.22 52.06 52.93 54.35 55.44 56.39 62.49 63.90 66.27 67.12 66.39 65.53 65.15 64.78 63.55 61.88 60.54 61.09 61.24 61.49 61.64 61.77 62.05 62.94
41.48 45.30 43.41 41.70 43.42 43.85 44.49 41.58 40.72 40.27 38.01 30.75 36.09 35.11 35.69 39.85 44.49 47.73 50.74 52.42 54.71 53.53 53.22 54.33 56.35 56.75 60.95 63.44 65.81 66.57 65.62 64.64 64.60 64.50 63.23 62.50 61.09 60.56 60.29 60.18 59.95 60.94 60.14 59.89
41.28 41.95 44.32 45.01 40.60 43.27 42.12 38.09 29.74 28.36 29.16 28.34 38.24 35.94 38.90 45.51 48.07 49.14 49.84 52.04 54.01 54.93 55.73 57.20 58.21 55.49 57.11 62.51 64.66 65.85 65.12 63.83 64.45 63.93 64.03 62.81 62.49 61.24 60.82 60.28 60.33 59.55 58.75 58.43
34.15 32.43 41.04 44.84 41.93 39.25 39.19 38.12 31.16 23.23 25.87 29.49 37.57 32.78 39.74 47.95 50.48 50.16 50.50 50.77 51.68 51.41 51.79 53.43 55.34 54.24 58.86 62.82 64.76 64.91 64.60 63.64 63.96 63.98 63.29 62.89 62.17 60.99 61.09 61.42 60.96 59.71 58.98 58.68
34.33 34.84 43.08 43.82 44.51 42.95 38.94 35.15 40.53 33.83 35.04 30.13 34.23 38.33 44.58 45.97 46.69 47.46 47.16 47.76 47.47 47.79 48.80 50.42 52.53 54.24 60.06 62.65 64.01 64.10 64.23 63.22 63.75 63.54 62.94 62.18 61.71 61.18 60.76 61.04 61.23 60.91 60.10 59.76
39.51 32.64 40.24 42.46 44.39 44.18 41.21 43.05 34.28 34.21 25.39 24.89 32.35 35.14 35.94 39.47 41.82 44.60 44.55 44.89 45.48 45.50 44.93 46.63 47.64 50.72 61.67 63.25 62.87 62.58 62.33 62.16 62.63 62.67 62.89 61.83 61.20 60.96 61.03 61.04 61.01 60.80 60.97 60.09
39.49 36.18 36.38 41.05 38.46 38.15 39.03 37.66 38.25 37.67 34.85 27.65 26.87 31.94 39.17 40.06 42.48 42.86 44.26 44.15 42.79 41.81 41.62 42.33 43.93 47.05 51.83 60.03 60.51 59.78 60.34 60.02 60.83 60.95 61.04 60.88 60.26 60.38 61.03 61.14 60.86 60.17 60.68 60.03
38.08 35.12 31.27 35.77 42.32 44.16 42.05 39.38 39.57 32.20 30.27 34.56 33.37 33.21 43.89 44.46 44.97 44.64 43.37 43.04 41.56 40.03 39.77 40.16 40.62 43.05 45.75 47.96 54.35 58.77 58.92 59.23 59.30 60.50 59.85 59.75 59.89 60.17 60.01 59.65 60.04 60.07 59.54 59.77
36.89 32.73 26.75 31.04 37.29 41.06 37.80 40.06 40.28 39.96 37.97 32.06 28.78 32.32 44.02 45.33 45.68 45.15 43.59 42.19 40.01 38.67 37.87 38.00 38.52 38.75 40.67 42.51 44.90 47.12 52.74 57.94 58.31 59.09 59.18 58.84 58.71 58.65 58.84 59.16 59.34 59.74 59.09 58.78
37.89 32.28 28.56 25.77 30.81 34.59 33.18 37.07 39.17 38.58 33.40 33.28 34.05 35.19 40.36 43.64 45.14 45.56 42.37 40.32 38.10 36.74 36.12 36.30 36.11 36.67 37.79 39.72 40.67 41.81 44.94 49.79 54.84 54.45 52.26 51.54 52.60 54.94 54.82 56.59 58.18 58.74 58.68 57.93
35.62 27.36 30.58 32.45 34.93 34.79 34.18 34.37 35.69 34.83 36.82 33.46 36.08 36.11 41.18 44.21 45.82 43.52 42.12 40.25 37.35 35.12 34.59 34.69 34.33 34.74 35.38 36.39 38.62 40.27 41.38 43.61 46.60 47.72 47.55 47.89 48.94 49.34 50.83 49.54 49.03 48.57 48.68 47.11
35.84 28.27 30.86 28.42 33.27 34.25 32.80 36.41 36.36 36.08 36.48 36.64 37.03 37.57 43.78 44.91 46.08 42.95 40.90 38.83 36.17 34.98 34.46 34.00 33.65 33.73 33.81 34.22 36.52 37.85 39.91 40.58 42.44 43.34 43.76 44.75 45.39 45.67 44.33 43.98 42.93 42.30 41.78 41.30
31.41 29.21 27.80 24.43 31.96 32.17 29.32 35.41 36.44 37.39 38.81 38.87 35.12 39.61 42.10 39.58 38.38 38.14 37.59 36.46 34.35 33.72 33.82 33.81 33.17 33.29 33.03 33.91 34.87 35.00 36.46 39.34 40.23 41.00 42.76 43.64 43.99 42.42 41.15 40.17 39.26 38.53 38.30 37.71
31.29 29.85 29.25 25.43 28.89 19.64 34.40 41.10 40.60 38.51 39.92 40.04 40.36 40.99 40.07 36.34 34.32 33.99 35.20 34.19 33.05 32.67 32.71 33.24 33.90 33.31 33.06 33.59 33.65 34.65 35.19 35.55 36.28 38.01 39.75 41.61 41.65 40.86 40.47 39.03 37.47 36.71 36.64 36.38
36.89 32.16 27.20 24.64 24.51 29.02 35.74 38.70 38.29 37.16 34.50 39.06 38.85 39.86 40.14 36.74 34.86 30.92 32.30 32.55 31.59 32.24 32.80 31.73 33.30 34.11 32.79 32.86 33.18 32.92 32.84 33.79 34.38 34.40 35.87 38.51 39.67 39.75 38.69 37.69 37.11 36.52 35.74 34.41
35.89 35.70 29.20 25.89 21.04 22.45 33.58 38.50 42.76 41.24 32.15 38.11 38.87 36.96 35.80 38.65 34.06 28.50 31.23 31.60 30.97 31.60 32.27 32.80 32.27 32.09 32.41 32.21 33.18 32.49 31.92 32.37 32.32 33.42 34.30 36.34 37.08 37.28 37.19 37.71 37.27 36.65 35.84 34.04
29.45 29.35 25.52 25.79 24.18 30.34 33.64 38.29 42.49 29.65 30.21 37.33 36.52 33.85 30.94 28.87 28.12 29.24 30.86 30.60 31.55 32.64 32.62 33.16 34.22 32.45 32.09 32.09 32.09 31.04 31.65 31.41 32.50 33.02 33.85 34.08 34.87 35.43 35.44 35.70 36.61 35.58 34.22 33.42
28.10 27.14 27.09 28.14 26.82 24.08 35.48 36.97 31.77 33.96 36.53 36.39 33.78 31.65 28.74 28.27 28.49 28.85 29.92 30.63 31.73 32.09 33.45 34.17 32.86 33.62 34.37 34.49 33.66 31.88 30.20 31.90 32.05 32.30 32.54 32.32 33.42 34.71 34.30 34.88 34.81 34.99 33.61 32.55
28.67 32.13 29.78 28.69 27.84 34.19 34.59 33.31 34.49 35.50 33.84 33.78 32.86 32.07 30.54 28.75 27.95 28.53 28.39 28.93 29.60 32.27 32.85 33.28 32.21 31.46 32.88 33.61 33.52 31.29 31.60 32.99 32.80 32.39 31.73 31.31 31.47 30.96 30.35 29.23 31.51 31.72 32.35 31.54
33.79 37.48 32.44 32.19 31.13 31.16 32.67 33.75 33.10 33.09 32.22 33.24 32.83 31.74 30.91 28.13 27.98 27.34 27.49 28.06 28.72 30.28 30.93 31.53 30.45 29.83 30.32 32.28 32.88 33.03 33.44 32.80 31.56 29.12 28.10 27.33 25.92 26.20 27.66 27.18 26.72 26.06 28.36 28.41
31.49 33.61 30.66 30.16 32.55 32.46 31.39 33.99 33.50 33.30 33.27 32.64 32.53 32.03 30.71 29.61 28.60 28.15 27.25 27.19 27.60 27.87 28.70 29.42 28.29 27.29 26.91 28.00 28.43 31.25 33.11 33.18 31.18 29.56 28.07 26.96 25.94 24.06 23.45 24.42 24.78 24.28 25.09 26.48
31.44 28.72 26.53 26.99 31.18 30.62 29.95 32.90 33.06 31.45 33.12 34.16 31.54 30.07 30.04 28.75 27.22 27.16 25.92 26.10 25.57 25.40 26.76 26.24 26.22 25.67 25.54 26.34 27.26 28.41 30.74 32.18 30.66 29.55 29.68 29.58 27.72 26.21 24.19 22.40 21.66 25.37 25.41 25.68
MSLP
1005.10 1005.21 1004.37 1003.92 1003.67 1003.59 1003.32 1003.10 1002.32 1001.53 1000.87 1000.77 1000.00 999.32 999.04 998.59 997.64 997.05 996.78 996.47 996.06 995.94 995.68 995.55 995.45 995.71 995.87 996.35 997.65 999.22 1000.72 1002.26 1003.41 1004.50 1005.23 1005.84 1006.49 1007.15 1007.61 1007.98 1008.08 1008.48 1008.92 1009.32
1004.48 1003.87 1003.50 1003.40 1003.06 1002.96 1002.92 1002.79 1002.22 1001.86 1001.44 1000.90 999.90 998.71 997.96 997.43 996.53 995.81 995.69 995.62 995.58 995.55 995.29 995.01 994.82 994.98 995.46 996.28 997.40 999.02 1000.49 1001.85 1002.93 1003.84 1004.65 1004.87 1005.77 1006.51 1007.25 1007.57 1008.04 1008.30 1008.67 1009.10
1003.26 1002.55 1002.29 1002.94 1002.90 1002.78 1002.58 1002.60 1002.34 1001.88 1001.40 1000.82 1000.23 998.62 997.24 996.00 995.01 994.72 994.59 994.68 994.97 994.95 995.07 994.89 994.81 994.90 995.28 996.16 997.38 998.65 1000.16 1001.53 1002.47 1003.14 1003.96 1004.67 1005.50 1006.04 1006.57 1007.12 1007.63 1008.01 1008.38 1008.82
1002.90 1002.43 1002.07 1002.27 1002.36 1002.73 1002.36 1002.30 1001.93 1001.81 1001.47 1000.92 1000.41 998.35 997.21 995.63 994.26 993.45 993.48 993.84 994.09 994.32 994.42 994.30 994.48 994.73 995.23 995.94 997.18 998.42 999.94 1001.19 1001.96 1002.66 1003.44 1004.26 1004.96 1005.76 1006.00 1006.74 1007.24 1007.66 1008.06 1008.53
1002.78 1002.27 1002.24 1002.24 1002.38 1002.43 1002.12 1002.23 1002.04 1002.15 1002.09 1001.58 1000.68 999.28 996.94 995.39 993.70 992.68 992.73 992.56 993.18 993.72 993.88 993.86 994.14 994.18 994.94 995.77 996.84 998.09 999.60 1000.72 1001.57 1002.28 1003.06 1004.03 1004.64 1005.28 1005.67 1006.24 1006.83 1007.45 1007.95 1008.41
1002.40 1002.22 1001.88 1001.70 1002.04 1002.05 1002.37 1002.64 1002.41 1002.56 1002.32 1001.64 999.76 999.37 997.15 995.62 994.65 994.30 993.21 993.53 994.22 994.23 994.38 994.34 994.24 994.07 994.55 995.31 996.42 997.64 999.14 1000.17 1001.25 1001.96 1002.90 1003.62 1004.01 1004.55 1005.30 1005.98 1006.84 1007.60 1008.24 1008.56
1001.42 1001.22 1001.30 1001.51 1001.92 1002.15 1002.64 1002.81 1002.46 1001.99 1001.31 1000.26 1000.85 999.72 996.52 996.36 996.26 995.66 995.07 995.44 996.12 996.45 996.33 995.84 995.26 994.33 993.93 994.96 996.03 997.26 998.70 999.90 1000.80 1001.68 1002.36 1002.98 1003.39 1004.11 1004.92 1005.74 1006.68 1007.60 1008.10 1008.42
1001.46 1000.53 1000.05 1000.50 1001.52 1001.55 1001.87 1002.54 1002.52 1001.83 1001.42 1000.78 1001.11 1000.56 997.42 996.80 997.09 997.46 997.61 998.14 998.64 998.81 998.62 998.36 997.48 996.06 993.66 994.73 995.88 997.07 998.27 999.55 1000.48 1001.47 1002.06 1002.67 1003.21 1004.20 1004.82 1005.48 1006.32 1007.25 1007.68 1008.04
1001.71 1000.90 1000.62 1000.65 1000.96 1001.62 1001.38 1001.66 1002.17 1002.59 1002.28 1001.83 1000.70 999.86 999.16 999.81 999.12 999.40 999.75 1000.32 1000.72 1000.62 1001.01 1000.48 999.44 997.64 994.13 995.11 996.11 997.08 998.10 999.28 1000.29 1001.31 1002.07 1002.65 1003.33 1004.16 1004.73 1005.38 1005.99 1006.68 1007.36 1007.86
1003.55 1002.68 1001.36 1001.18 1001.34 1001.15 1001.33 1001.69 1002.48 1003.48 1002.90 1001.56 1000.16 1000.40 1001.67 1001.80 1001.79 1001.79 1001.92 1002.36 1002.82 1003.26 1003.36 1002.87 1002.02 1000.20 996.88 996.25 997.15 997.92 998.51 999.41 1000.47 1001.32 1002.10 1002.69 1003.31 1004.01 1004.69 1005.39 1005.95 1006.51 1007.14 1007.72
1005.95 1005.24 1003.43 1002.13 1001.87 1001.08 1001.06 1001.39 1002.01 1002.92 1003.14 1002.54 1002.45 1002.92 1003.66 1003.16 1002.89 1002.82 1003.08 1003.83 1004.81 1005.41 1005.24 1004.70 1004.12 1003.03 1001.15 999.74 999.69 1000.09 1000.14 1000.78 1001.18 1001.92 1002.12 1002.85 1003.68 1004.29 1004.80 1005.43 1006.01 1006.46 1006.98 1007.50
1007.58 1007.80 1005.45 1002.81 1001.00 1000.65 1000.67 1000.74 1001.66 1002.73 1002.61 1002.62 1002.51 1002.76 1003.05 1002.73 1002.95 1003.20 1003.84 1004.53 1005.88 1006.56 1006.59 1006.39 1005.97 1005.11 1003.86 1003.20 1002.32 1002.06 1001.64 1002.12 1002.10 1002.66 1002.79 1003.48 1004.24 1004.44 1005.04 1005.57 1006.06 1006.53 1007.08 1007.55
1008.69 1008.05 1006.42 1003.85 1002.17 1000.98 1001.31 1001.26 1002.50 1002.34 1002.92 1002.77 1003.28 1002.52 1002.17 1002.17 1002.41 1003.44 1004.28 1005.52 1006.87 1007.47 1007.36 1007.50 1007.20 1006.86 1006.34 1005.64 1004.82 1004.10 1003.45 1002.99 1003.17 1003.37 1003.69 1004.35 1004.81 1005.01 1005.41 1005.79 1006.31 1006.69 1007.17 1007.76
1010.14 1009.20 1008.40 1006.38 1004.38 1004.82 1003.82 1003.14 1002.49 1002.01 1002.54 1002.38 1002.28 1002.46 1002.03 1002.01 1002.24 1003.33 1005.33 1006.64 1007.90 1008.62 1008.45 1008.67 1008.74 1008.67 1008.28 1007.60 1006.98 1006.12 1005.63 1004.72 1004.29 1004.45 1004.83 1005.48 1005.82 1006.00 1006.22 1006.33 1006.67 1007.08 1007.52 1008.07
1009.80 1009.46 1008.76 1007.55 1005.58 1005.06 1004.62 1004.21 1003.14 1003.07 1003.00 1002.20 1002.08 1002.05 1002.32 1002.50 1002.94 1004.58 1006.30 1007.57 1008.74 1009.50 1009.68 1009.84 1010.05 1010.13 1009.79 1009.23 1008.68 1007.88 1007.50 1006.48 1006.18 1005.98 1006.17 1006.82 1007.00 1007.21 1007.42 1007.83 1008.24 1008.64 1008.86 1009.46
1010.13 1009.42 1008.78 1007.34 1006.42 1005.32 1003.99 1002.82 1003.00 1003.29 1003.04 1002.67 1002.65 1002.00 1003.76 1004.17 1004.32 1006.10 1007.55 1008.74 1009.87 1010.42 1010.86 1010.98 1011.36 1011.12 1011.09 1010.93 1010.34 1009.72 1009.05 1008.41 1007.84 1007.32 1007.61 1007.91 1008.07 1008.16 1008.72 1009.38 1009.67 1009.83 1010.32 1010.90
1010.30 1010.53 1009.12 1007.31 1006.47 1005.24 1003.15 1001.34 1001.58 1002.08 1002.71 1002.04 1002.30 1003.89 1004.85 1006.23 1007.64 1008.68 1009.41 1010.40 1011.33 1012.00 1012.32 1011.95 1012.54 1012.41 1012.24 1012.22 1011.85 1011.38 1010.88 1010.11 1009.16 1008.84 1008.90 1009.08 1009.26 1009.70 1009.95 1010.38 1010.95 1011.25 1011.52 1012.10
1009.18 1009.76 1009.65 1008.13 1007.34 1005.48 1001.88 1000.49 1000.38 1001.32 1002.77 1003.98 1004.00 1004.86 1006.36 1008.03 1009.86 1010.90 1011.58 1012.12 1012.86 1013.47 1013.34 1013.23 1013.58 1013.37 1013.09 1013.29 1013.14 1012.93 1012.12 1011.56 1011.04 1010.52 1010.30 1010.37 1010.29 1010.78 1011.24 1011.36 1011.67 1012.42 1012.62 1012.86
1008.11 1008.84 1009.31 1008.52 1007.78 1005.80 1001.92 1000.90 1000.73 1001.46 1005.20 1005.62 1005.54 1006.30 1007.66 1009.29 1010.56 1012.52 1013.54 1013.86 1014.19 1014.45 1014.51 1014.38 1014.16 1014.43 1014.14 1013.63 1014.30 1013.88 1013.35 1013.05 1012.72 1012.39 1012.05 1011.85 1011.56 1011.73 1012.38 1012.54 1012.84 1013.14 1013.69 1013.57
1007.06 1007.96 1009.54 1009.36 1008.84 1006.27 1004.99 1003.52 1002.32 1002.41 1006.06 1007.51 1007.85 1009.09 1009.82 1010.22 1011.94 1013.88 1014.69 1015.12 1015.21 1015.24 1015.30 1014.94 1014.92 1014.99 1014.80 1014.62 1014.87 1014.54 1014.69 1014.38 1014.13 1013.83 1013.49 1013.28 1013.49 1012.51 1013.53 1013.62 1013.84 1013.89 1014.25 1015.00
1007.20 1008.52 1009.23 1009.58 1009.43 1007.57 1007.39 1005.83 1003.53 1004.87 1009.29 1009.62 1010.44 1011.50 1012.03 1012.68 1014.39 1015.32 1015.74 1016.01 1016.06 1015.88 1015.86 1015.66 1015.28 1015.39 1015.72 1015.90 1015.26 1015.46 1015.20 1015.30 1015.57 1014.52 1014.30 1014.48 1015.22 1014.42 1014.02 1014.69 1015.26 1014.70 1015.12 1015.54
1007.70 1008.36 1008.71 1009.04 1008.78 1009.25 1009.23 1007.16 1008.26 1010.75 1010.90 1011.34 1012.23 1013.01 1013.84 1014.78 1015.66 1016.25 1016.58 1016.77 1016.68 1016.40 1016.48 1016.24 1015.96 1016.14 1016.28 1016.42 1016.34 1016.16 1016.02 1017.04 1015.92 1015.73 1015.38 1015.82 1016.09 1016.11 1015.46 1015.46 1015.38 1015.80 1015.72 1016.60
1008.92 1008.88 1009.27 1010.53 1011.30 1011.76 1012.00 1012.20 1012.58 1012.32 1012.52 1012.97 1013.50 1014.28 1015.14 1015.87 1016.67 1017.14 1017.50 1017.68 1017.49 1017.10 1017.01 1017.04 1016.80 1016.92 1016.67 1016.77 1016.63 1016.84 1017.22 1016.81 1017.05 1016.93 1017.04 1017.20 1017.87 1016.10 1017.22 1017.47 1016.96 1016.68 1017.24 1017.76
1010.02 1009.79 1010.54 1011.64 1012.73 1013.18 1013.44 1013.56 1013.90 1014.04 1014.23 1014.54 1015.03 1015.61 1016.41 1016.94 1017.57 1017.99 1018.29 1018.48 1018.43 1018.21 1018.02 1017.85 1017.58 1017.60 1017.59 1017.34 1017.14 1016.90 1017.12 1017.64 1017.74 1017.79 1018.05 1018.97 1018.83 1018.29 1018.06 1018.47 1018.06 1018.36 1018.72 1019.06
1012.53 1012.08 1012.61 1013.30 1013.89 1014.28 1014.71 1015.02 1015.09 1015.37 1015.65 1015.98 1016.38 1016.74 1017.30 1017.63 1018.08 1018.68 1019.13 1019.22 1019.41 1019.44 1019.27 1019.12 1019.09 1019.30 1019.28 1019.34 1019.17 1018.81 1018.14 1018.00 1018.10 1018.43 1018.61 1018.72 1019.08 1018.80 1019.46 1019.96 1020.14 1020.53 1020.95 1020.84
1014.35 1014.80 1014.88 1014.89 1015.50 1015.60 1016.23 1016.30 1016.23 1016.35 1016.54 1016.81 1017.07 1017.56 1018.08 1018.41 1018.94 1019.47 1019.94 1020.22 1020.44 1020.61 1020.60 1020.64 1020.58 1020.78 1020.75 1020.60 1020.44 1020.18 1019.74 1019.05 1019.07 1019.04 1019.11 1019.20 1019.74 1020.53 1021.18 1021.65 1021.98 1022.12 1022.28 1022.41
Wind_Speed
15 11 15 18 19 20 17 19 20 22 20 19 20 22 22 22 20 19 19 19 14 15 13 17 14 16 12 9 18 19 17 15 11 9 8 8 6 6 5 4 5 5 6 7
14 15 17 16 17 15 16 19 20 19 21 20 22 24 22 20 23 22 19 18 18 12 16 13 8 9 9 11 17 19 17 16 12 9 8 8 8 8 7 6 7 6 6 8
17 17 11 8 13 15 17 18 18 22 20 20 21 26 24 23 27 26 21 17 17 14 16 14 12 9 11 10 16 17 17 16 14 11 8 6 4 4 5 5 6 8 9 8
14 17 17 16 18 14 18 17 19 17 17 14 17 17 21 21 18 13 18 20 17 17 19 15 14 13 13 10 14 17 17 16 13 12 10 11 8 7 5 6 5 6 7 7
12 11 12 14 15 16 18 17 15 13 16 19 20 15 16 21 20 18 10 11 11 15 11 10 12 13 17 13 14 14 17 16 14 12 11 8 9 6 5 4 8 5 5 4
18 15 16 13 13 15 9 13 16 15 14 14 22 17 18 15 8 13 13 14 13 2 8 11 13 14 15 16 15 14 18 16 15 13 14 13 12 9 7 6 6 4 5 4
17 19 19 17 11 12 10 12 9 11 10 14 14 10 17 12 4 4 9 17 15 18 19 19 15 15 13 19 18 15 17 16 15 14 12 11 8 8 10 10 7 7 5 4
16 16 16 18 14 10 14 13 9 9 7 12 5 8 2 13 16 21 21 18 17 18 19 20 24 24 7 18 18 17 16 15 15 14 10 8 11 6 5 8 8 6 5 5
12 17 9 2 9 10 10 12 14 18 17 15 11 16 7 23 18 18 16 16 16 19 19 20 24 26 3 17 17 16 15 14 13 12 8 8 9 9 6 7 8 8 7 6
11 15 19 15 12 14 15 7 5 4 5 9 8 6 7 12 14 11 12 12 13 15 16 17 19 24 16 12 9 10 2 15 7 9 8 8 8 7 6 6 6 7 8 9
13 8 13 23 10 15 14 14 12 5 8 3 4 3 1 4 4 8 9 9 8 10 13 15 16 18 20 11 9 8 8 5 6 3 9 8 7 7 7 6 6 5 5 7
8 5 14 20 20 22 20 15 16 9 7 6 9 2 7 7 5 3 7 10 8 9 11 13 15 16 16 17 14 6 6 4 5 3 8 8 6 7 6 6 6 7 7 6
1 6 9 15 16 16 8 11 21 18 3 9 6 4 8 8 5 8 8 11 9 9 12 14 15 16 15 15 14 13 10 6 4 5 7 6 6 6 5 6 7 6 8 6
6 10 11 15 10 14 14 18 17 12 7 5 7 9 11 10 6 10 10 10 10 10 12 12 14 14 15 14 14 14 13 11 7 9 12 11 11 10 11 10 7 5 6 6
12 16 18 21 24 16 16 22 10 18 16 9 9 9 15 12 7 14 11 10 10 11 13 13 12 13 14 16 14 14 12 13 10 11 12 9 9 10 10 11 11 12 12 12
11 13 17 20 20 19 25 21 6 9 11 8 19 3 14 14 11 12 11 10 10 12 12 13 13 14 14 15 14 13 13 13 11 12 12 10 10 11 13 11 11 12 13 13
11 5 8 15 15 14 13 18 10 11 21 11 4 8 13 13 14 13 11 11 11 10 10 12 11 12 12 12 13 13 13 11 12 13 12 11 11 12 12 12 12 12 14 13
15 11 8 8 10 8 13 12 13 6 18 12 10 14 11 11 11 12 12 10 10 10 10 10 6 9 11 10 11 11 12 12 13 13 13 12 13 13 11 12 14 12 12 14
17 10 5 4 5 16 17 8 8 6 10 17 17 16 12 10 8 10 10 9 9 9 8 7 8 6 6 11 9 10 11 11 11 13 13 12 12 13 12 12 12 12 12 14
16 10 3 3 3 6 8 19 5 2 7 14 14 13 13 4 3 4 7 7 8 8 6 7 7 7 9 9 8 9 8 10 11 11 10 13 11 15 11 11 11 12 13 13
8 4 9 9 6 3 18 18 9 1 6 12 12 10 12 6 6 7 7 7 7 7 9 8 8 7 7 6 7 9 9 10 7 10 12 12 9 12 12 11 8 12 12 14
7 6 5 8 7 6 24 13 9 6 12 11 11 10 12 12 10 9 8 7 6 7 7 8 8 8 7 6 7 7 10 6 9 11 12 10 11 8 8 8 10 11 12 13
3 4 4 7 4 7 13 12 10 10 10 11 11 11 10 11 11 10 10 10 11 9 9 8 10 11 9 9 10 11 10 7 6 8 10 10 8 12 13 11 10 10 10 9
10 14 5 3 9 12 12 12 13 12 12 11 12 12 9 11 10 10 8 8 9 9 10 9 11 12 11 11 11 11 10 11 10 12 12 10 11 12 12 10 11 11 8 8
6 8 10 4 5 6 13 11 10 10 10 12 11 11 10 11 11 10 9 10 9 10 10 11 12 11 12 13 13 13 9 9 8 9 9 11 10 13 14 14 11 11 13 12
6 6 5 4 8 4 7 8 11 12 11 8 10 11 11 11 11 10 10 9 10 10 9 9 11 10 11 12 11 12 13 9 8 8 8 7 7 7 8 8 10 22 21 22
Wind_Direction
205 222 232 232 230 246 269 280 286 289 297 304 286 276 274 275 265 260 259 264 252 262 259 235 224 224 209 161 147 146 148 159 170 145 162 158 158 170 159 166 164 201 181 173
239 220 249 255 263 262 267 276 276 279 284 270 272 272 270 261 261 251 245 244 244 243 266 264 234 206 168 152 153 147 154 165 178 160 188 165 168 166 175 169 180 185 174 178
247 248 223 264 267 269 259 263 276 282 282 282 290 278 274 270 247 250 246 243 239 245 236 237 237 240 154 152 158 156 163 169 177 177 167 146 139 150 171 168 178 185 189 187
267 263 261 270 266 250 268 274 274 291 284 279 293 301 288 284 295 248 224 228 230 234 238 219 230 226 164 166 158 159 162 174 173 180 166 163 164 181 159 187 174 179 186 182
253 272 244 254 262 275 277 285 289 284 283 287 278 271 279 284 271 247 213 218 203 209 240 230 232 219 167 167 161 166 162 172 173 180 158 169 163 180 164 167 156 165 114 134
258 260 266 247 277 278 265 281 269 270 262 267 261 264 267 270 8 333 41 39 20 260 227 244 241 249 175 169 159 162 166 171 176 174 166 182 179 159 161 137 139 131 140 156
252 232 236 236 240 253 244 267 259 265 250 247 11 332 253 110 317 37 39 41 27 16 5 352 328 227 204 166 160 162 165 174 174 176 181 179 161 139 158 150 151 150 155 148
267 275 248 187 216 243 220 232 243 273 287 313 308 269 343 134 63 43 36 30 20 8 359 343 339 335 238 152 152 160 168 179 167 181 174 165 138 151 160 157 148 164 167 150
310 272 48 156 215 231 242 242 240 265 279 278 253 226 29 358 39 38 29 22 4 2 351 347 343 335 187 152 151 159 175 165 172 169 160 155 141 160 145 143 155 164 152 153
325 308 282 217 224 227 243 255 247 327 266 266 266 290 49 25 7 29 39 30 11 348 349 353 348 346 4 82 91 76 116 161 140 157 158 155 119 117 129 124 130 144 152 157
328 310 283 292 197 220 212 230 245 239 252 280 297 311 100 15 320 342 25 40 28 356 360 1 353 347 360 36 60 55 82 126 125 228 121 113 124 146 140 144 143 130 138 148
4 302 287 272 268 206 248 234 229 227 250 286 284 298 231 225 218 35 39 50 40 27 16 18 6 3 10 10 15 29 97 100 97 110 120 107 110 109 126 130 136 123 119 121
11 280 295 270 260 250 219 239 233 215 272 231 273 287 224 247 252 105 62 57 45 32 36 23 17 14 12 9 6 14 4 130 117 89 98 113 131 126 144 139 139 128 118 117
334 260 258 279 298 312 298 296 296 299 208 255 256 337 284 228 225 110 79 68 53 37 45 36 24 17 11 14 8 15 10 25 57 77 73 62 54 53 64 51 73 94 110 120
215 261 271 270 289 290 275 279 289 303 283 228 261 253 30 11 88 83 85 71 55 46 45 43 36 21 17 12 11 19 14 29 38 74 69 61 61 61 65 62 61 64 65 63
346 272 265 269 277 282 306 247 218 302 298 353 255 162 62 15 94 82 78 68 61 55 52 51 40 39 25 15 13 9 24 28 39 63 71 65 60 65 68 71 69 68 67 67
274 273 310 264 280 301 281 247 238 216 213 239 14 57 65 61 49 33 67 64 60 53 45 54 45 42 39 18 20 17 21 26 43 52 58 68 67 66 70 74 70 70 76 74
249 255 275 290 302 262 266 193 205 199 49 36 74 67 76 98 88 52 37 67 59 46 42 47 41 49 54 38 27 16 30 32 36 44 49 57 67 67 67 74 78 71 73 75
233 223 268 277 284 286 187 110 143 146 46 22 20 29 79 113 115 63 52 59 66 50 44 43 36 26 39 67 38 41 38 36 41 38 43 42 62 72 66 67 76 82 76 80
201 208 201 296 276 274 13 340 22 103 87 27 19 15 358 160 254 70 61 62 65 60 36 49 44 43 41 33 45 66 50 48 42 47 47 52 48 76 66 77 81 85 81 80
156 169 217 248 249 241 347 328 296 25 41 39 36 29 29 71 56 85 67 57 52 59 51 37 47 51 60 50 45 42 53 56 64 60 60 56 37 61 78 62 70 83 86 83
179 216 210 217 237 81 354 21 55 351 50 45 59 73 86 90 83 72 58 41 48 67 73 54 52 49 69 86 72 65 69 41 53 49 64 50 49 56 65 75 74 78 83 84
65 350 4 34 44 33 49 59 44 45 54 48 73 81 94 94 84 70 60 43 31 37 70 67 71 67 62 73 75 82 90 77 91 84 76 68 49 54 50 50 57 66 63 74
355 17 36 202 37 51 39 57 54 52 61 62 64 75 85 93 85 76 66 54 42 33 44 58 72 68 52 46 45 49 71 86 77 71 72 72 63 55 57 53 47 48 44 56
356 357 335 90 84 103 49 39 55 67 70 71 71 81 89 91 85 86 78 64 51 43 39 50 54 51 48 41 30 15 47 57 74 90 89 81 72 62 59 53 51 54 49 48
5 7 4 22 1 76 44 48 56 53 47 65 89 86 85 86 87 81 71 67 59 50 50 55 61 57 48 45 38 27 21 41 66 59 54 73 89 98 97 87 75 66 69 66